This is the latest recevied weather packets stored in our database for station/object KE5BM-13. If no packets are shown the sender has not sent any weather packets the latest 10 day(s).
| Time | Temp. | Humidity | Pressure | Rain* | Wind** | Luminosity | Snow |
|---|---|---|---|---|---|---|---|
| 1777792981 | 8.33° C | 97% | 1005.9 hPa | 1.52 mm | - | - | - |
| 1777792679 | 8.33° C | 97% | 1005.7 hPa | 1.78 mm | - | - | - |
| 1777792381 | 8.33° C | 97% | 1005.8 hPa | 1.78 mm | - | - | - |
| 1777792080 | 8.33° C | 97% | 1005.7 hPa | 2.03 mm | - | - | - |
| 1777791780 | 8.33° C | 96% | 1005.9 hPa | 2.03 mm | - | - | - |
| 1777791478 | 8.33° C | 96% | 1005.7 hPa | 2.03 mm | - | - | - |
| 1777791175 | 8.33° C | 96% | 1005.9 hPa | 2.29 mm | - | - | - |
| 1777790873 | 8.89° C | 96% | 1006 hPa | 2.03 mm | - | - | - |
| 1777790572 | 8.89° C | 97% | 1006.5 hPa | 2.29 mm | - | - | - |
| 1777790272 | 8.89° C | 97% | 1006.4 hPa | 2.03 mm | - | - | - |
| 1777789972 | 8.89° C | 97% | 1006.5 hPa | 2.03 mm | - | - | - |
| 1777789671 | 8.89° C | 96% | 1006.6 hPa | 1.78 mm | - | - | - |
| 1777789375 | 8.89° C | 96% | 1006.7 hPa | 1.78 mm | - | - | - |
| 1777789070 | 8.89° C | 96% | 1006.7 hPa | 1.78 mm | - | - | - |
| 1777788770 | 8.89° C | 96% | 1006.8 hPa | 1.52 mm | - | - | - |
| 1777788471 | 8.89° C | 96% | 1007 hPa | 1.52 mm | - | - | - |
| 1777788171 | 8.89° C | 96% | 1007.1 hPa | 1.52 mm | - | - | - |
| 1777787870 | 8.89° C | 96% | 1007.2 hPa | 1.78 mm | - | - | - |
| 1777787573 | 8.89° C | 96% | 1007.2 hPa | 1.78 mm | - | - | - |
| 1777787246 | 8.89° C | 96% | 1007.2 hPa | 1.78 mm | - | - | - |
| 1777786944 | 8.89° C | 96% | 1007 hPa | 1.78 mm | - | - | - |
| 1777786642 | 8.89° C | 96% | 1007 hPa | 2.03 mm | - | - | - |
| 1777786338 | 8.89° C | 96% | 1007 hPa | 2.54 mm | - | - | - |
| 1777786039 | 8.89° C | 96% | 1007 hPa | 2.54 mm | - | - | - |
| 1777785734 | 8.89° C | 96% | 1007 hPa | 2.79 mm | - | - | - |
* Rain latest hour (hover to see other rain measurements)
** Current wind speed in m/s (hover to see current wind gust speed)